CW8386 Weather Reports


Display with metric or nautical units.
time (UTC)temp
F
wind
direction
speed
MPH
gust
MPH
rain 1hr
in
rain 24hr
in
rain mn
in
humidity
%
barometer
mb
20260902212527 84 360 5.0 21.0 0.00 0.00 0.00 26 1010.4
20260902212049 84 360 4.0 17.0 0.00 0.00 0.00 26 1010.4
20260902211529 84 360 3.0 17.0 0.00 0.00 0.00 27 1010.5
20260902210532 84 360 5.0 18.0 0.00 0.00 0.00 27 1010.5
20260902210033 84 360 8.0 21.0 0.00 0.00 0.00 27 1010.6
20260902205535 84 360 4.0 26.0 0.00 0.00 0.00 27 1010.7
20260902204613 84 360 13.0 27.0 0.00 0.00 0.00 27 1010.8
20260902204053 84 360 15.0 27.0 0.00 0.00 0.00 27 1011.0
20260902203532 84 360 1.0 32.0 0.00 0.00 0.00 27 1011.0
20260902203115 84 360 8.0 32.0 0.00 0.00 0.00 27 1011.1
20260902202052 84 360 5.0 13.0 0.00 0.00 0.00 27 1011.0
20260902201613 84 360 3.0 18.0 0.00 0.00 0.00 28 1011.2
20260902201053 83 360 10.0 19.0 0.00 0.00 0.00 28 1011.2
20260902200532 83 360 4.0 29.0 0.00 0.00 0.00 29 1011.4
20260902195553 82 360 0.0 21.0 0.00 0.00 0.00 28 1011.3
20260902195054 82 360 2.0 23.0 0.00 0.00 0.00 29 1011.5
20260902194535 82 360 1.0 15.0 0.00 0.00 0.00 30 1011.6
20260902194058 83 360 4.0 16.0 0.00 0.00 0.00 29 1011.6
20260902193618 83 360 7.0 23.0 0.00 0.00 0.00 29 1011.6
20260902193118 83 360 17.0 25.0 0.00 0.00 0.00 30 1011.9
20260902192618 82 360 15.0 26.0 0.00 0.00 0.00 30 1011.9
20260902192057 82 360 12.0 26.0 0.00 0.00 0.00 30 1012.1
20260902191537 81 360 1.0 26.0 0.00 0.00 0.00 30 1011.9
20260902191121 82 360 4.0 28.0 0.00 0.00 0.00 29 1012.1
20260902190558 82 360 5.0 28.0 0.00 0.00 0.00 27 1012.2
20260902190039 83 360 15.0 24.0 0.00 0.00 0.00 26 1012.2
20260902185541 83 360 18.0 24.0 0.00 0.00 0.00 26 1012.4
20260902185123 83 360 9.0 22.0 0.00 0.00 0.00 27 1012.3
20260902184602 82 360 10.0 21.0 0.00 0.00 0.00 26 1012.2
20260902184045 83 360 6.0 18.0 0.00 0.00 0.00 27 1012.3
20260902183524 82 360 7.0 21.0 0.00 0.00 0.00 27 1012.3
20260902183046 82 360 4.0 21.0 0.00 0.00 0.00 28 1012.4
20260902182526 83 360 9.0 16.0 0.00 0.00 0.00 27 1012.5
20260902182048 83 360 9.0 31.0 0.00 0.00 0.00 27 1012.6
20260902181529 83 360 9.0 31.0 0.00 0.00 0.00 27 1012.6
20260902181030 83 360 5.0 17.0 0.00 0.00 0.00 28 1012.7
20260902180611 82 360 1.0 17.0 0.00 0.00 0.00 28 1012.7
20260902180051 82 360 5.0 19.0 0.00 0.00 0.00 28 1012.8
20260902175532 82 360 11.0 19.0 0.00 0.00 0.00 27 1012.8
20260902175034 82 360 7.0 17.0 0.00 0.00 0.00 27 1012.8
20260902174556 82 360 5.0 17.0 0.00 0.00 0.00 28 1012.8
20260902174036 82 360 3.0 18.0 0.00 0.00 0.00 28 1012.8
20260902173555 81 360 8.0 18.0 0.00 0.00 0.00 28 1012.9
20260902173055 81 360 10.0 20.0 0.00 0.00 0.00 30 1012.9
20260902172555 81 360 5.0 21.0 0.00 0.00 0.00 30 1013.0
20260902172039 81 360 5.0 21.0 0.00 0.00 0.00 29 1013.0
20260902171617 81 360 5.0 25.0 0.00 0.00 0.00 30 1013.0
20260902171058 81 360 5.0 25.0 0.00 0.00 0.00 30 1013.1
20260902170557 81 360 4.0 21.0 0.00 0.00 0.00 30 1013.0
20260902170058 81 360 1.0 13.0 0.00 0.00 0.00 31 1013.0
20260902165559 80 360 2.0 17.0 0.00 0.00 0.00 33 1012.9
20260902165024 79 360 5.0 19.0 0.00 0.00 0.00 35 1012.9
20260902164525 79 360 4.0 20.0 0.00 0.00 0.00 36 1012.9
20260902164027 78 360 8.0 21.0 0.00 0.00 0.00 36 1013.0
20260902163528 78 360 9.0 20.0 0.00 0.00 0.00 37 1013.0
20260902163049 78 360 8.0 19.0 0.00 0.00 0.00 37 1013.0
20260902162551 78 360 7.0 20.0 0.00 0.00 0.00 38 1013.1
20260902161550 77 360 10.0 19.0 0.00 0.00 0.00 37 1013.2
20260902161051 77 360 0.0 14.0 0.00 0.00 0.00 38 1013.4
20260902160530 77 360 5.0 14.0 0.00 0.00 0.00 38 1013.5
20260902160051 77 360 5.0 14.0 0.00 0.00 0.00 37 1013.5
20260902155552 76 360 3.0 14.0 0.00 0.00 0.00 37 1013.6
20260902155114 76 360 2.0 16.0 0.00 0.00 0.00 38 1013.7
20260902154553 76 360 9.0 16.0 0.00 0.00 0.00 37 1013.8
20260902154055 77 360 5.0 14.0 0.00 0.00 0.00 37 1013.7
20260902153554 76 360 4.0 16.0 0.00 0.00 0.00 37 1013.8
20260902153034 76 360 4.0 16.0 0.00 0.00 0.00 38 1013.9
20260902152615 76 360 2.0 15.0 0.00 0.00 0.00 39 1013.8
20260902152056 76 360 5.0 15.0 0.00 0.00 0.00 38 1013.8
20260902151556 75 360 1.0 17.0 0.00 0.00 0.00 39 1013.8
20260902151038 75 360 5.0 17.0 0.00 0.00 0.00 39 1013.9
20260902150558 75 360 8.0 17.0 0.00 0.00 0.00 39 1013.9
20260902150119 75 360 4.0 12.0 0.00 0.00 0.00 39 1013.9
20260902145539 74 360 3.0 12.0 0.00 0.00 0.00 40 1013.9
20260902145121 74 360 0.0 10.0 0.00 0.00 0.00 41 1014.0
20260902144540 73 360 2.0 10.0 0.00 0.00 0.00 41 1014.1
20260902144041 73 360 4.0 12.0 0.00 0.00 0.00 42 1014.1
20260902143542 73 360 4.0 12.0 0.00 0.00 0.00 42 1014.0
20260902143023 72 360 1.0 10.0 0.00 0.00 0.00 43 1014.1
20260902142526 71 360 4.0 10.0 0.00 0.00 0.00 44 1014.2
20260902142048 70 360 3.0 9.0 0.00 0.00 0.00 45 1014.2
20260902141549 69 360 2.0 5.0 0.00 0.00 0.00 46 1014.2
20260902140608 67 360 0.0 4.0 0.00 0.00 0.00 49 1014.3
20260902140027 66 360 0.0 0.0 0.00 0.00 0.00 50 1014.3
20260902135530 64 360 0.0 0.0 0.00 0.00 0.00 52 1014.3
20260902135031 63 360 0.0 0.0 0.00 0.00 0.00 52 1014.4
20260902134552 62 360 0.0 0.0 0.00 0.00 0.00 53 1014.5
20260902134034 61 360 0.0 0.0 0.00 0.00 0.00 55 1014.5
20260902133534 60 360 0.0 2.0 0.00 0.00 0.00 56 1014.7
20260902133034 59 360 0.0 3.0 0.00 0.00 0.00 57 1014.6
20260902132535 57 360 1.0 3.0 0.00 0.00 0.00 58 1014.6
20260902132118 56 360 0.0 0.0 0.00 0.00 0.00 59 1014.6
20260902131537 55 360 0.0 0.0 0.00 0.00 0.00 59 1014.7
20260902131100 55 360 0.0 0.0 0.00 0.00 0.00 59 1014.6
20260902130523 55 360 0.0 0.0 0.00 0.00 0.00 58 1014.5
20260902130024 56 360 0.0 0.0 0.00 0.00 0.00 57 1014.4
20260902125026 55 360 0.0 2.0 0.00 0.00 0.00 59 1014.4
20260902124527 55 360 0.0 3.0 0.00 0.00 0.00 59 1014.4
20260902124031 55 360 0.0 2.0 0.00 0.00 0.00 58 1014.4
20260902123553 55 360 0.0 0.0 0.00 0.00 0.00 58 1014.4
20260902123034 56 360 0.0 0.0 0.00 0.00 0.00 58 1014.3
20260902122615 56 360 0.0 0.0 0.00 0.00 0.00 58 1014.2
20260902122034 55 360 0.0 1.0 0.00 0.00 0.00 58 1014.1
20260902121536 55 360 0.0 5.0 0.00 0.00 0.00 58 1014.1
20260902121038 55 360 3.0 5.0 0.00 0.00 0.00 59 1014.2
20260902120539 54 360 2.0 5.0 0.00 0.00 0.00 59 1014.3
20260902120100 54 360 0.0 4.0 0.00 0.00 0.00 58 1014.2
20260902115541 55 360 3.0 4.0 0.00 0.00 0.00 57 1014.2
20260902115023 55 360 0.0 4.0 0.00 0.00 0.00 58 1014.2
20260902114525 55 360 1.0 6.0 0.00 0.00 0.00 58 1014.1
20260902114108 54 360 4.0 6.0 0.00 0.00 0.00 59 1014.1
20260902113527 54 360 2.0 3.0 0.00 0.00 0.00 59 1014.1
20260902113028 54 360 1.0 3.0 0.00 0.00 0.00 58 1014.2
20260902112050 54 360 3.0 7.0 0.00 0.00 0.00 58 1014.1
20260902111552 54 360 4.0 7.0 0.00 0.00 0.00 59 1014.0
20260902111033 54 360 3.0 6.0 0.00 0.00 0.00 58 1014.1
20260902110614 54 360 3.0 6.0 0.00 0.00 0.00 58 1014.1
20260902110033 54 360 1.0 4.0 0.00 0.00 0.00 58 1014.0
20260902105534 54 360 0.0 4.0 0.00 0.00 0.00 58 1014.0
20260902105039 54 360 0.0 4.0 0.00 0.00 0.00 57 1014.1
20260902104601 55 360 0.0 6.0 0.00 0.00 0.00 57 1014.1
20260902104102 54 360 0.0 6.0 0.00 0.00 0.00 57 1014.2
20260902103602 54 360 1.0 8.0 0.00 0.00 0.00 57 1014.2
20260902103103 54 360 3.0 8.0 0.00 0.00 0.00 57 1014.2
20260902102543 54 360 2.0 5.0 0.00 0.00 0.00 57 1014.1
20260902102045 54 360 3.0 5.0 0.00 0.00 0.00 57 1014.1
20260902101525 54 360 4.0 5.0 0.00 0.00 0.00 57 1014.3
20260902101047 54 360 2.0 3.0 0.00 0.00 0.00 57 1014.2
20260902100547 55 360 0.0 3.0 0.00 0.00 0.00 57 1014.1
20260902100028 55 360 0.0 3.0 0.00 0.00 0.00 56 1014.1
20260902095549 56 360 0.0 1.0 0.00 0.00 0.00 55 1014.2
20260902095029 56 360 0.0 3.0 0.00 0.00 0.00 56 1014.1
20260902094531 56 360 0.0 3.0 0.00 0.00 0.00 56 1014.9
20260902094032 56 360 0.0 0.0 0.00 0.00 0.00 56 1014.8
20260902093613 56 360 0.0 0.0 0.00 0.00 0.00 55 1014.8
20260902093114 56 360 0.0 2.0 0.00 0.00 0.00 54 1014.8
20260902092533 57 360 0.0 4.0 0.00 0.00 0.00 56 1014.8
20260902092055 56 360 3.0 4.0 0.00 0.00 0.00 55 1014.8
20260902091556 56 360 2.0 4.0 0.00 0.00 0.00 55 1014.7
20260902091037 55 360 2.0 4.0 0.00 0.00 0.00 55 1014.6
20260902090536 56 360 3.0 4.0 0.00 0.00 0.00 54 1014.6
20260902085536 57 360 0.0 2.0 0.00 0.00 0.00 53 1014.6
20260902085058 57 360 0.0 0.0 0.00 0.00 0.00 53 1014.6
20260902084538 58 360 0.0 0.0 0.00 0.00 0.00 52 1014.7
20260902084040 58 360 0.0 0.0 0.00 0.00 0.00 51 1014.6
20260902083540 58 360 0.0 0.0 0.00 0.00 0.00 52 1014.6
20260902083042 58 360 0.0 0.0 0.00 0.00 0.00 52 1014.5
20260902082527 58 360 0.0 4.0 0.00 0.00 0.00 52 1014.5
20260902082028 57 360 0.0 4.0 0.00 0.00 0.00 52 1014.5
20260902081529 57 360 0.0 3.0 0.00 0.00 0.00 53 1014.5
20260902081032 57 360 1.0 5.0 0.00 0.00 0.00 53 1014.5
20260902080552 57 360 4.0 5.0 0.00 0.00 0.00 52 1014.5
20260902080034 58 360 0.0 0.0 0.00 0.00 0.00 52 1014.5
20260902075536 58 360 0.0 0.0 0.00 0.00 0.00 51 1014.5
20260902075036 58 360 0.0 0.0 0.00 0.00 0.00 52 1014.4
20260902074538 58 360 0.0 2.0 0.00 0.00 0.00 52 1014.4
20260902074100 59 360 1.0 2.0 0.00 0.00 0.00 51 1014.5
20260902073620 59 360 2.0 2.0 0.00 0.00 0.00 50 1014.5
20260902073039 60 360 0.0 0.0 0.00 0.00 0.00 50 1014.4
20260902072540 59 360 0.0 2.0 0.00 0.00 0.00 51 1014.4
20260902072101 59 360 0.0 5.0 0.00 0.00 0.00 51 1014.5
20260902071542 58 360 0.0 6.0 0.00 0.00 0.00 52 1014.6
20260902071045 58 360 5.0 6.0 0.00 0.00 0.00 51 1014.5
20260902070545 59 360 3.0 5.0 0.00 0.00 0.00 51 1014.4
20260902070106 60 360 3.0 4.0 0.00 0.00 0.00 50 1014.4
20260902065526 61 360 1.0 5.0 0.00 0.00 0.00 49 1014.4
20260902065026 61 360 3.0 5.0 0.00 0.00 0.00 48 1014.4
20260902064548 61 360 0.0 1.0 0.00 0.00 0.00 48 1014.4
20260902064030 62 360 0.0 4.0 0.00 0.00 0.00 48 1014.4
20260902063551 62 360 0.0 5.0 0.00 0.00 0.00 48 1014.4
20260902063112 62 360 4.0 5.0 0.00 0.00 0.00 48 1014.4
20260902062532 63 360 0.0 2.0 0.00 0.00 0.00 47 1014.4
20260902062038 63 360 0.0 0.0 0.00 0.00 0.00 47 1014.3
20260902061058 63 360 0.0 0.0 0.00 0.00 0.00 47 1014.4
20260902060538 64 360 0.0 2.0 0.00 0.00 0.00 47 1014.4
20260902060100 64 360 0.0 2.0 0.00 0.00 0.00 47 1014.4
20260902055546 64 360 0.0 3.0 0.00 0.00 0.00 47 1014.4
20260902055027 64 360 1.0 3.0 0.00 0.00 0.00 47 1014.3
20260902054549 65 360 0.0 4.0 0.00 0.00 0.00 47 1014.3
20260902054030 65 360 3.0 4.0 0.00 0.00 0.00 46 1014.2
20260902053529 66 360 1.0 2.0 0.00 0.00 0.00 46 1014.1
20260902053030 66 360 0.0 1.0 0.00 0.00 0.00 45 1014.1
20260902052533 67 360 0.0 2.0 0.00 0.00 0.00 45 1014.1
20260902052115 67 360 0.0 2.0 0.00 0.00 0.00 45 1014.1
20260902051555 66 360 0.0 4.0 0.00 0.00 0.00 45 1014.2
20260902051036 66 360 1.0 7.0 0.00 0.00 0.00 45 1014.2
20260902050617 64 360 2.0 7.0 0.00 0.00 0.00 47 1014.2
20260902050056 63 360 4.0 6.0 0.00 0.00 0.00 48 1014.1
20260902045536 63 360 3.0 4.0 0.00 0.00 0.00 48 1014.0
20260902044617 63 360 5.0 7.0 0.00 0.00 0.00 48 1013.9
20260902044037 64 360 4.0 5.0 0.00 0.00 0.00 47 1014.0
20260902043558 64 360 1.0 4.0 0.00 0.00 0.00 47 1014.0
20260902043037 65 360 3.0 3.0 0.00 0.00 0.00 46 1014.0
20260902042118 65 360 1.0 5.0 0.00 0.00 0.00 46 1014.1
20260902041557 66 360 4.0 5.0 0.00 0.00 0.00 45 1014.1
20260902041118 66 360 0.0 2.0 0.00 0.00 0.00 45 1014.0
20260902040613 67 360 2.0 3.0 0.00 0.00 0.00 45 1014.0
20260902040052 67 360 1.0 2.0 0.00 0.00 0.00 44 1014.1
20260902035033 67 360 1.0 4.0 0.00 0.00 0.00 44 1013.7
20260902034614 68 360 3.0 4.0 0.00 0.00 0.00 43 1013.8
20260902034055 68 360 2.0 7.0 0.00 0.00 0.00 43 1013.7
20260902033615 68 360 2.0 7.0 0.00 0.00 0.00 43 1013.7
20260902033055 68 360 5.0 6.0 0.00 0.00 0.00 43 1013.7
20260902032556 69 360 2.0 3.0 0.00 0.00 0.00 42 1013.6
20260902032036 69 360 2.0 5.0 0.00 0.00 0.00 42 1013.5
20260902031539 69 360 3.0 5.0 0.00 0.00 0.00 42 1013.4
20260902031025 70 360 3.0 4.0 0.00 0.00 0.00 41 1013.3
20260902030525 70 360 2.0 5.0 0.00 0.00 0.00 41 1013.3
20260902030106 72 360 4.0 5.0 0.00 0.00 0.00 39 1013.3
20260902025527 73 360 1.0 4.0 0.00 0.00 0.00 38 1013.2
20260902024544 74 360 3.0 5.0 0.00 0.00 0.00 37 1013.0
20260902024029 74 360 0.0 5.0 0.00 0.00 0.00 38 1012.8
20260902023529 73 360 2.0 7.0 0.00 0.00 0.00 38 1012.8
20260902023030 74 360 2.0 9.0 0.00 0.00 0.00 38 1012.7
20260902022531 75 360 2.0 9.0 0.00 0.00 0.00 36 1012.6
20260902022114 76 360 5.0 6.0 0.00 0.00 0.00 36 1012.5
20260902021553 77 360 3.0 6.0 0.00 0.00 0.00 35 1012.3
20260902020532 78 360 3.0 10.0 0.00 0.00 0.00 34 1012.2
20260902020053 79 360 5.0 10.0 0.00 0.00 0.00 34 1012.2
20260902015614 79 360 4.0 7.0 0.00 0.00 0.00 34 1012.2
20260902015033 79 360 4.0 9.0 0.00 0.00 0.00 33 1012.1
20260902014534 80 360 3.0 14.0 0.00 0.00 0.00 33 1012.1
20260902014035 80 360 9.0 14.0 0.00 0.00 0.00 33 1012.0
20260902013536 80 360 4.0 11.0 0.00 0.00 0.00 33 1012.0
20260902013039 81 360 7.0 12.0 0.00 0.00 0.00 33 1011.9
20260902012536 82 360 5.0 12.0 0.00 0.00 0.00 32 1011.8
20260902011557 82 360 4.0 13.0 0.00 0.00 0.00 29 1011.8
20260902011058 82 360 2.0 13.0 0.00 0.00 0.00 29 1011.9
20260902010557 82 360 1.0 12.0 0.00 0.00 0.00 29 1011.8
20260902010057 82 360 2.0 6.0 0.00 0.00 0.00 30 1011.7
20260902005537 82 360 1.0 14.0 0.00 0.00 0.00 30 1011.7
20260902005059 82 360 2.0 14.0 0.00 0.00 0.00 29 1011.7
20260902004600 82 360 3.0 13.0 0.00 0.00 0.00 29 1011.7
20260902004122 83 360 5.0 11.0 0.00 0.00 0.00 29 1011.6
20260902003601 83 360 0.0 12.0 0.00 0.00 0.00 29 1011.6
20260902003123 83 360 2.0 12.0 0.00 0.00 0.00 29 1011.6
20260902002602 83 360 5.0 11.0 0.00 0.00 0.00 29 1012.4
20260902002102 83 360 2.0 15.0 0.00 0.00 0.00 30 1012.4
20260902001523 83 360 0.0 12.0 0.00 0.00 0.00 30 1012.3
20260902000103 82 360 2.0 21.0 0.00 0.00 0.00 29 1012.4
20260901235620 83 360 2.0 21.0 0.00 0.00 0.00 28 1012.4
20260901235024 83 360 5.0 18.0 0.00 0.00 0.00 29 1012.4
20260901234606 83 360 2.0 14.0 0.00 0.00 0.00 29 1012.4
20260901234026 83 360 7.0 21.0 0.00 0.00 0.00 29 1012.4
20260901233526 83 360 13.0 22.0 0.00 0.00 0.00 30 1012.4
20260901233047 83 360 11.0 22.0 0.00 0.00 0.00 30 1012.4
20260901232528 83 360 11.0 20.0 0.00 0.00 0.00 30 1012.4
20260901232110 83 360 10.0 23.0 0.00 0.00 0.00 30 1012.4
20260901231550 83 360 9.0 23.0 0.00 0.00 0.00 29 1012.4
20260901231111 83 360 4.0 18.0 0.00 0.00 0.00 30 1012.4
20260901230529 83 360 1.0 12.0 0.00 0.00 0.00 30 1012.3
20260901230031 83 360 1.0 7.0 0.00 0.00 0.00 30 1012.3
20260901225532 83 360 0.0 6.0 0.00 0.00 0.00 31 1012.3
20260901225054 83 360 0.0 13.0 0.00 0.00 0.00 31 1012.3
20260901224616 83 360 1.0 20.0 0.00 0.00 0.00 31 1012.4
20260901224035 84 360 2.0 20.0 0.00 0.00 0.00 30 1012.3
20260901223536 85 360 2.0 11.0 0.00 0.00 0.00 30 1012.3
20260901223117 84 360 2.0 11.0 0.00 0.00 0.00 30 1012.4
20260901222617 84 360 6.0 11.0 0.00 0.00 0.00 30 1012.4
20260901222036 83 360 3.0 7.0 0.00 0.00 0.00 31 1012.5
20260901221537 83 360 1.0 14.0 0.00 0.00 0.00 31 1012.5
20260901221039 83 360 4.0 16.0 0.00 0.00 0.00 31 1012.4
20260901220538 83 360 0.0 22.0 0.00 0.00 0.00 32 1012.5
20260901220039 84 360 3.0 22.0 0.00 0.00 0.00 30 1012.5
20260901215540 85 360 0.0 11.0 0.00 0.00 0.00 29 1012.5
20260901215041 85 360 3.0 20.0 0.00 0.00 0.00 28 1012.6
20260901214542 84 360 12.0 20.0 0.00 0.00 0.00 28 1012.7
20260901214105 84 360 2.0 9.0 0.00 0.00 0.00 30 1012.7